Mount Pleasant, IA

10:16 AM CDT on May 25, 2017 (GMT -0500)
Mount Pleasant Municipal

Weather History for KMPZ - February, 2013

Change the Weather History Date:

Tuesday, February 5, 2013

  Actual Average Record
Temperature  
Mean Temperature 28 °F -  
Max Temperature 39 °F 31 °F 57 °F (1990)
Min Temperature 18 °F 13 °F -19 °F (1979)
Degree Days  
Heating Degree Days 36    
Moisture  
Dew Point 25 °F    
Average Humidity 81    
Maximum Humidity 93    
Minimum Humidity 67    
Precipitation  
Precipitation 0.00 in - - ()
Sea Level Pressure  
Sea Level Pressure 29.94 in    
Wind  
Wind Speed 7 mph (West)    
Max Wind Speed 17 mph    
Max Gust Speed 29 mph    
Visibility 8 miles    
Events      
Averages and records for this station are not official NWS values.
T = Trace of Precipitation, MM = Missing Value Source: NWS Daily Summary

Daily Weather History Graph

Daily Weather History Graph

Search for Another Location

Airport or City:

Trip Planner

Search our weather history database for the weather conditions in past years. The results will help you decide how hot, cold, wet, or windy it might be!

Date:

Astronomy

Feb. 05, 2013 Rise Set
Actual Time 7:12 AM CST 5:28 PM CST
Civil Twilight 6:43 AM CST 5:57 PM CST
Nautical Twilight 6:10 AM CST 6:29 PM CST
Astronomical Twilight 5:38 AM CST 7:02 PM CST
Moon 2:55 AM CST (2/5) 12:45 PM CST (2/5)
Length of Visible Light 11h 13m
Length of Day
10h 16m
Waning Crescent, 26% of the Moon is Illuminated
Feb 5
Waning Crescent
Feb 10
New
Feb 17
First Quarter
Feb 25
Full
Mar 4
Last Quarter

Hourly Weather History & Observations

Time (CST) Temp. Windchill Dew Point Humidity Pressure Visibility Wind Dir Wind Speed Gust Speed Precip Events Conditions
12:15 AM 18.5 °F - 16.7 °F 93% 29.96 in 7.0 mi Calm Calm - N/A   Scattered Clouds
12:35 AM 18.9 °F 12.1 °F 17.1 °F 93% 29.96 in 7.0 mi WSW 4.6 mph - N/A   Scattered Clouds
12:55 AM 20.1 °F 13.6 °F 18.5 °F 93% 29.96 in 7.0 mi WSW 4.6 mph - N/A   Mostly Cloudy
1:15 AM 20.3 °F 13.8 °F 18.3 °F 92% 29.95 in 7.0 mi SSW 4.6 mph - N/A   Overcast
1:35 AM 20.5 °F - 18.0 °F 90% 29.94 in 7.0 mi Calm Calm - N/A   Overcast
1:55 AM 21.0 °F 16.2 °F 18.5 °F 90% 29.94 in 7.0 mi South 3.5 mph - N/A   Overcast
2:15 AM 21.0 °F 16.2 °F 18.5 °F 90% 29.93 in 7.0 mi SSE 3.5 mph - N/A   Overcast
2:35 AM 21.2 °F - 18.9 °F 91% 29.93 in 7.0 mi Calm Calm - N/A   Overcast
2:55 AM 21.6 °F 16.8 °F 19.0 °F 90% 29.92 in 7.0 mi South 3.5 mph - N/A   Overcast
3:15 AM 21.7 °F 17.0 °F 19.4 °F 91% 29.91 in 7.0 mi South 3.5 mph - N/A   Overcast
3:35 AM 22.1 °F 17.4 °F 19.9 °F 91% 29.90 in 7.0 mi South 3.5 mph - N/A   Overcast
3:55 AM 22.5 °F 17.8 °F 19.9 °F 90% 29.90 in 7.0 mi South 3.5 mph - N/A   Overcast
4:15 AM 23.0 °F 15.8 °F 20.3 °F 89% 29.90 in 7.0 mi South 5.8 mph - N/A   Overcast
4:35 AM 23.2 °F 14.1 °F 20.3 °F 89% 29.88 in 7.0 mi South 8.1 mph - N/A   Overcast
4:55 AM 23.5 °F 15.4 °F 20.3 °F 87% 29.88 in 7.0 mi South 6.9 mph - N/A   Overcast
5:15 AM 23.7 °F 14.0 °F 20.3 °F 87% 29.88 in 7.0 mi South 9.2 mph - N/A   Overcast
5:35 AM 23.9 °F 13.5 °F 20.3 °F 86% 29.87 in 7.0 mi SSW 10.4 mph - N/A   Overcast
5:55 AM 23.7 °F 12.1 °F 20.3 °F 87% 29.87 in 7.0 mi SSW 12.7 mph - N/A   Overcast
6:15 AM 23.9 °F 13.5 °F 20.8 °F 88% 29.86 in 7.0 mi SSW 10.4 mph - N/A   Overcast
6:35 AM 23.7 °F 12.6 °F 20.7 °F 88% 29.86 in 7.0 mi SSW 11.5 mph - N/A   Mostly Cloudy
6:55 AM 23.2 °F 13.3 °F 20.3 °F 89% 29.87 in 7.0 mi SSW 9.2 mph - N/A   Clear
7:15 AM 23.4 °F 14.3 °F 20.3 °F 88% 29.86 in 7.0 mi NW 8.1 mph - N/A   Clear
7:35 AM 23.0 °F 13.1 °F 20.3 °F 89% 29.86 in 5.0 mi NNW 9.2 mph - N/A   Clear
7:55 AM 23.7 °F 13.3 °F 20.8 °F 89% 29.87 in 5.0 mi NNW 10.4 mph - N/A   Clear
8:15 AM 24.6 °F 14.4 °F 21.6 °F 88% 29.86 in 5.0 mi NNW 10.4 mph - N/A   Clear
8:35 AM 25.7 °F 15.1 °F 22.1 °F 86% 29.86 in 5.0 mi SW 11.5 mph - N/A   Clear
8:55 AM 26.8 °F 15.9 °F 22.8 °F 85% 29.86 in 5.0 mi SW 12.7 mph - N/A   Clear
9:15 AM 27.5 °F 17.4 °F 23.2 °F 84% 29.85 in 7.0 mi SSW 11.5 mph - N/A   Clear
9:35 AM 29.1 °F 17.9 °F 24.1 °F 81% 29.84 in 7.0 mi SW 15.0 mph 18.4 mph N/A   Clear
9:55 AM 30.2 °F 19.3 °F 24.4 °F 79% 29.85 in 7.0 mi SW 15.0 mph - N/A   Clear
10:15 AM 31.3 °F 21.1 °F 24.8 °F 77% 29.85 in 7.0 mi SW 13.8 mph - N/A   Clear
10:35 AM 32.0 °F 22.1 °F 25.5 °F 77% 29.85 in 7.0 mi WSW 13.8 mph - N/A   Clear
10:55 AM 33.3 °F 23.7 °F 25.9 °F 74% 29.86 in 10.0 mi WSW 13.8 mph - N/A   Clear
11:15 AM 34.3 °F 25.9 °F 26.6 °F 73% 29.86 in 10.0 mi WSW 11.5 mph - N/A   Clear
11:35 AM 35.6 °F 28.0 °F 26.6 °F 70% 29.86 in 10.0 mi West 10.4 mph - N/A   Clear
11:55 AM 36.7 °F 28.0 °F 27.3 °F 69% 29.86 in 10.0 mi West 13.8 mph 18.4 mph N/A   Clear
12:15 PM 37.6 °F 28.8 °F 27.7 °F 67% 29.86 in 10.0 mi West 15.0 mph 20.7 mph N/A   Clear
12:35 PM 38.1 °F 28.8 °F 28.2 °F 68% 29.87 in 10.0 mi WNW 17.3 mph 25.3 mph N/A   Clear
12:55 PM 39.0 °F 31.0 °F 29.1 °F 68% 29.87 in 10.0 mi WNW 13.8 mph 21.9 mph N/A   Clear
1:15 PM 38.3 °F 29.0 °F 28.8 °F 69% 29.89 in 10.0 mi West 17.3 mph 24.2 mph N/A   Scattered Clouds
1:35 PM 38.8 °F 30.0 °F 29.1 °F 68% 29.90 in 10.0 mi NW 16.1 mph 28.8 mph N/A   Mostly Cloudy
1:55 PM 37.8 °F 30.7 °F 28.9 °F 71% 29.90 in 10.0 mi WNW 10.4 mph 24.2 mph N/A   Overcast
2:15 PM 37.4 °F 30.3 °F 29.3 °F 73% 29.90 in 10.0 mi WNW 10.4 mph 20.7 mph N/A   Overcast
2:35 PM 37.9 °F 31.5 °F 30.4 °F 74% 29.91 in 10.0 mi WNW 9.2 mph - N/A   Mostly Cloudy
2:55 PM 39.4 °F 32.7 °F 31.1 °F 72% 29.92 in 10.0 mi WNW 10.4 mph - N/A   Scattered Clouds
3:15 PM 39.2 °F 31.2 °F 31.1 °F 73% 29.93 in 10.0 mi WNW 13.8 mph 18.4 mph N/A   Scattered Clouds
3:35 PM 39.4 °F 31.4 °F 30.9 °F 72% 29.94 in 10.0 mi NW 13.8 mph 20.7 mph N/A   Scattered Clouds
3:55 PM 39.0 °F 33.4 °F 30.9 °F 73% 29.95 in 10.0 mi NW 8.1 mph - N/A   Scattered Clouds
4:15 PM 37.8 °F 29.4 °F 30.0 °F 74% 29.96 in 10.0 mi WNW 13.8 mph 18.4 mph N/A   Scattered Clouds
4:35 PM 37.8 °F 30.2 °F 29.5 °F 72% 29.97 in 10.0 mi NW 11.5 mph 19.6 mph N/A   Clear
4:55 PM 37.4 °F 29.8 °F 29.5 °F 73% 29.98 in 10.0 mi WNW 11.5 mph 19.6 mph N/A   Mostly Cloudy
5:15 PM 37.0 °F 28.9 °F 29.5 °F 74% 29.99 in 10.0 mi NW 12.7 mph 19.6 mph N/A   Overcast
5:35 PM 36.9 °F 29.1 °F 28.4 °F 71% 30.00 in 10.0 mi NW 11.5 mph 19.6 mph N/A   Overcast
5:55 PM 35.6 °F 29.9 °F 28.9 °F 77% 30.01 in 10.0 mi NW 6.9 mph - N/A   Mostly Cloudy
6:15 PM 35.6 °F 29.9 °F 29.3 °F 78% 30.02 in 10.0 mi WNW 6.9 mph - N/A   Mostly Cloudy
6:35 PM 35.2 °F 27.6 °F 29.1 °F 78% 30.02 in 10.0 mi NNW 10.4 mph - N/A   Overcast
6:55 PM 35.6 °F 29.2 °F 28.4 °F 75% 30.03 in 10.0 mi NNW 8.1 mph - N/A   Overcast
7:15 PM 35.1 °F 31.0 °F 27.5 °F 74% 30.03 in 10.0 mi NW 4.6 mph - N/A   Mostly Cloudy
7:35 PM 34.9 °F 29.9 °F 26.6 °F 72% 30.03 in 10.0 mi NW 5.8 mph - N/A   Clear
7:55 PM 34.5 °F 28.6 °F 26.6 °F 73% 30.04 in 10.0 mi WNW 6.9 mph - N/A   Clear
8:15 PM 33.4 °F 30.4 °F 26.2 °F 75% 30.06 in 10.0 mi West 3.5 mph - N/A   Clear
8:35 PM 32.0 °F 28.7 °F 26.6 °F 80% 30.06 in 10.0 mi West 3.5 mph - N/A   Clear
8:55 PM 31.8 °F 27.3 °F 27.1 °F 83% 30.07 in 10.0 mi WSW 4.6 mph - N/A   Clear
9:15 PM 32.0 °F 27.5 °F 27.0 °F 82% 30.08 in 10.0 mi WSW 4.6 mph - N/A   Clear
9:35 PM 30.9 °F 26.2 °F 27.3 °F 86% 30.09 in 10.0 mi West 4.6 mph - N/A   Clear
9:55 PM 31.1 °F 26.4 °F 27.1 °F 85% 30.09 in 10.0 mi West 4.6 mph - N/A   Clear
10:15 PM 30.2 °F 26.7 °F 27.0 °F 88% 30.09 in 10.0 mi West 3.5 mph - N/A   Clear
10:35 PM 30.2 °F 26.7 °F 27.1 °F 88% 30.10 in 10.0 mi WSW 3.5 mph - N/A   Clear
10:55 PM 29.7 °F 26.1 °F 27.1 °F 90% 30.10 in 10.0 mi West 3.5 mph - N/A   Clear
11:15 PM 29.3 °F 25.6 °F 27.0 °F 91% 30.10 in 10.0 mi West 3.5 mph - N/A   Clear
11:35 PM 29.7 °F 26.1 °F 27.1 °F 90% 30.11 in 10.0 mi West 3.5 mph - N/A   Clear
11:55 PM 29.8 °F 24.9 °F 27.5 °F 91% 30.11 in 10.0 mi NW 4.6 mph - N/A   Clear